Time,TemperatureF,DewpointF,PressureIn,WindDirection,WindDirectionDegrees,WindSpeedMPH,WindSpeedGustMPH,Humidity,HourlyPrecipIn,Conditions,Clouds,dailyrainin,SoftwareType,DateUTC
2013-12-17 00:02:00,7.2,4.1,29.92,SW,236,0.0,1.0,87,0.00,,,0.00,Wunderground v.1.15,2013-12-17 06:02:00,
2013-12-17 00:12:00,6.3,3.5,29.91,WSW,246,0.0,0.0,88,0.00,,,0.00,Wunderground v.1.15,2013-12-17 06:12:00,
2013-12-17 00:21:00,6.0,3.2,29.92,WSW,251,0.0,1.0,88,0.00,,,0.00,Wunderground v.1.15,2013-12-17 06:21:00,
2013-12-17 00:32:00,6.1,3.1,29.92,WSW,239,1.0,1.0,87,0.00,,,0.00,Wunderground v.1.15,2013-12-17 06:32:00,
2013-12-17 00:42:00,6.4,3.4,29.91,WSW,241,0.0,0.0,87,0.00,,,0.00,Wunderground v.1.15,2013-12-17 06:42:00,
2013-12-17 00:51:00,7.2,4.1,29.91,West,275,0.0,0.0,87,0.00,,,0.00,Wunderground v.1.15,2013-12-17 06:51:00,
2013-12-17 01:02:00,7.1,3.8,29.91,WNW,289,0.0,0.0,86,0.00,,,0.00,Wunderground v.1.15,2013-12-17 07:02:00,
2013-12-17 01:11:00,7.0,3.9,29.91,West,261,0.0,0.0,87,0.00,,,0.00,Wunderground v.1.15,2013-12-17 07:11:00,
2013-12-17 01:21:00,6.7,3.7,29.90,West,261,0.0,0.0,87,0.00,,,0.00,Wunderground v.1.15,2013-12-17 07:21:00,
2013-12-17 01:32:00,5.4,2.1,29.89,West,261,0.0,0.0,86,0.00,,,0.00,Wunderground v.1.15,2013-12-17 07:32:00,
2013-12-17 01:41:00,4.4,1.6,29.89,West,261,0.0,0.0,88,0.00,,,0.00,Wunderground v.1.15,2013-12-17 07:41:00,
2013-12-17 01:51:00,4.2,1.4,29.89,West,261,0.0,0.0,88,0.00,,,0.00,Wunderground v.1.15,2013-12-17 07:51:00,
2013-12-17 02:01:00,3.4,0.6,29.89,West,261,0.0,0.0,88,0.00,,,0.00,Wunderground v.1.15,2013-12-17 08:01:00,
2013-12-17 02:12:00,2.7,0.0,29.89,West,261,0.0,0.0,88,0.00,,,0.00,Wunderground v.1.15,2013-12-17 08:12:00,
2013-12-17 02:22:00,2.9,0.4,29.89,West,261,0.0,0.0,89,0.00,,,0.00,Wunderground v.1.15,2013-12-17 08:22:00,
2013-12-17 02:31:00,2.6,-0.1,29.90,West,261,0.0,0.0,88,0.00,,,0.00,Wunderground v.1.15,2013-12-17 08:31:00,
2013-12-17 02:42:00,2.4,-0.3,29.89,West,261,0.0,0.0,88,0.00,,,0.00,Wunderground v.1.15,2013-12-17 08:42:00,
2013-12-17 02:52:00,2.3,-0.4,29.89,West,261,0.0,0.0,88,0.00,,,0.00,Wunderground v.1.15,2013-12-17 08:52:00,
2013-12-17 03:02:00,2.9,0.2,29.89,West,261,0.0,0.0,88,0.00,,,0.00,Wunderground v.1.15,2013-12-17 09:02:00,
2013-12-17 03:12:00,3.1,0.3,29.88,SSW,210,1.0,1.0,88,0.00,,,0.00,Wunderground v.1.15,2013-12-17 09:12:00,
2013-12-17 03:22:00,4.0,1.2,29.89,SSW,210,1.0,1.0,88,0.00,,,0.00,Wunderground v.1.15,2013-12-17 09:22:00,
2013-12-17 03:32:00,6.2,3.7,29.88,SSW,203,1.0,1.0,89,0.00,,,0.00,Wunderground v.1.15,2013-12-17 09:32:00,
2013-12-17 03:42:00,6.5,3.7,29.88,SSW,196,0.0,0.0,88,0.00,,,0.00,Wunderground v.1.15,2013-12-17 09:42:00,
2013-12-17 03:52:00,6.6,3.8,29.88,South,178,1.0,2.0,88,0.00,,,0.00,Wunderground v.1.15,2013-12-17 09:52:00,
2013-12-17 04:02:00,6.9,4.1,29.87,South,176,2.0,2.0,88,0.00,,,0.00,Wunderground v.1.15,2013-12-17 10:02:00,
2013-12-17 04:12:00,7.1,4.3,29.86,South,177,1.0,1.0,88,0.00,,,0.00,Wunderground v.1.15,2013-12-17 10:12:00,
2013-12-17 04:22:00,7.1,4.3,29.86,South,170,1.0,1.0,88,0.00,,,0.00,Wunderground v.1.15,2013-12-17 10:22:00,
2013-12-17 04:32:00,7.1,4.3,29.86,South,170,0.0,0.0,88,0.00,,,0.00,Wunderground v.1.15,2013-12-17 10:32:00,
2013-12-17 04:42:00,7.2,4.4,29.86,SSE,165,0.0,1.0,88,0.00,,,0.00,Wunderground v.1.15,2013-12-17 10:42:00,
2013-12-17 04:52:00,7.2,4.4,29.86,SE,146,0.0,0.0,88,0.00,,,0.00,Wunderground v.1.15,2013-12-17 10:52:00,
2013-12-17 05:02:00,7.2,4.4,29.86,SE,144,0.0,0.0,88,0.00,,,0.00,Wunderground v.1.15,2013-12-17 11:02:00,
2013-12-17 05:12:00,7.2,4.4,29.86,SE,144,0.0,1.0,88,0.00,,,0.00,Wunderground v.1.15,2013-12-17 11:12:00,
2013-12-17 05:22:00,7.2,4.4,29.86,SE,144,0.0,0.0,88,0.00,,,0.00,Wunderground v.1.15,2013-12-17 11:22:00,
2013-12-17 05:32:00,7.1,4.3,29.86,SE,144,0.0,0.0,88,0.00,,,0.00,Wunderground v.1.15,2013-12-17 11:32:00,
2013-12-17 05:42:00,7.3,4.5,29.86,SE,144,0.0,0.0,88,0.00,,,0.00,Wunderground v.1.15,2013-12-17 11:42:00,
2013-12-17 05:51:00,7.4,4.6,29.86,SE,133,1.0,2.0,88,0.00,,,0.00,Wunderground v.1.15,2013-12-17 11:51:00,
2013-12-17 06:02:00,7.5,4.7,29.86,SSE,156,1.0,1.0,88,0.00,,,0.00,Wunderground v.1.15,2013-12-17 12:02:00,
2013-12-17 06:12:00,7.6,4.5,29.86,South,173,1.0,1.0,87,0.00,,,0.00,Wunderground v.1.15,2013-12-17 12:12:00,
2013-12-17 06:22:00,7.7,4.9,29.85,South,173,0.0,0.0,88,0.00,,,0.00,Wunderground v.1.15,2013-12-17 12:22:00,
2013-12-17 06:31:00,7.8,5.0,29.85,South,173,0.0,0.0,88,0.00,,,0.00,Wunderground v.1.15,2013-12-17 12:31:00,
2013-12-17 06:41:00,8.0,5.2,29.85,South,173,0.0,0.0,88,0.00,,,0.00,Wunderground v.1.15,2013-12-17 12:41:00,
2013-12-17 06:52:00,8.2,5.4,29.85,South,173,0.0,0.0,88,0.00,,,0.00,Wunderground v.1.15,2013-12-17 12:52:00,
2013-12-17 07:01:00,8.2,5.4,29.84,South,173,1.0,1.0,88,0.00,,,0.00,Wunderground v.1.15,2013-12-17 13:01:00,
2013-12-17 07:12:00,8.3,5.5,29.85,South,173,0.0,0.0,88,0.00,,,0.00,Wunderground v.1.15,2013-12-17 13:12:00,
2013-12-17 07:22:00,8.5,5.9,29.85,South,173,0.0,0.0,89,0.00,,,0.00,Wunderground v.1.15,2013-12-17 13:22:00,
2013-12-17 07:31:00,8.7,6.1,29.85,South,173,0.0,0.0,89,0.00,,,0.00,Wunderground v.1.15,2013-12-17 13:31:00,
2013-12-17 07:42:00,8.6,6.0,29.85,South,173,0.0,0.0,89,0.00,,,0.00,Wunderground v.1.15,2013-12-17 13:42:00,
2013-12-17 07:52:00,8.7,6.4,29.84,South,173,0.0,0.0,90,0.00,,,0.00,Wunderground v.1.15,2013-12-17 13:52:00,
2013-12-17 08:02:00,9.0,6.7,29.84,South,173,0.0,0.0,90,0.00,,,0.00,Wunderground v.1.15,2013-12-17 14:02:00,
2013-12-17 08:12:00,9.3,6.7,29.85,South,173,0.0,0.0,89,0.00,,,0.00,Wunderground v.1.15,2013-12-17 14:12:00,
2013-12-17 08:22:00,9.7,7.1,29.85,South,173,0.0,0.0,89,0.00,,,0.00,Wunderground v.1.15,2013-12-17 14:22:00,
2013-12-17 08:31:00,10.4,7.6,29.85,South,173,0.0,0.0,88,0.00,,,0.00,Wunderground v.1.15,2013-12-17 14:31:00,
2013-12-17 08:41:00,10.8,7.9,29.85,South,173,0.0,0.0,88,0.00,,,0.00,Wunderground v.1.15,2013-12-17 14:41:00,
2013-12-17 08:51:00,11.1,8.2,29.85,South,176,0.0,0.0,88,0.00,,,0.00,Wunderground v.1.15,2013-12-17 14:51:00,
2013-12-17 09:02:00,11.6,8.5,29.85,South,176,0.0,0.0,87,0.00,,,0.00,Wunderground v.1.15,2013-12-17 15:02:00,
2013-12-17 09:12:00,11.8,8.7,29.85,South,170,1.0,1.0,87,0.00,,,0.00,Wunderground v.1.15,2013-12-17 15:12:00,
2013-12-17 09:22:00,12.0,8.9,29.85,South,170,1.0,1.0,87,0.00,,,0.00,Wunderground v.1.15,2013-12-17 15:22:00,
2013-12-17 09:32:00,12.5,9.4,29.85,South,170,0.0,0.0,87,0.00,,,0.00,Wunderground v.1.15,2013-12-17 15:32:00,
2013-12-17 09:42:00,13.5,10.1,29.85,South,170,0.0,0.0,86,0.00,,,0.00,Wunderground v.1.15,2013-12-17 15:42:00,
2013-12-17 09:52:00,13.7,10.3,29.85,South,178,0.0,0.0,86,0.00,,,0.00,Wunderground v.1.15,2013-12-17 15:52:00,
2013-12-17 10:01:00,13.9,10.2,29.86,West,272,1.0,1.0,85,0.00,,,0.00,Wunderground v.1.15,2013-12-17 16:01:00,
2013-12-17 10:12:00,14.4,10.7,29.86,WSW,243,1.0,1.0,85,0.00,,,0.00,Wunderground v.1.15,2013-12-17 16:12:00,
2013-12-17 10:22:00,14.9,10.9,29.86,SW,226,1.0,1.0,84,0.00,,,0.00,Wunderground v.1.15,2013-12-17 16:22:00,
2013-12-17 10:32:00,15.5,11.5,29.86,WSW,240,1.0,1.0,84,0.00,,,0.00,Wunderground v.1.15,2013-12-17 16:32:00,
2013-12-17 10:41:00,16.2,12.2,29.86,West,277,1.0,1.0,84,0.00,,,0.00,Wunderground v.1.15,2013-12-17 16:41:00,
2013-12-17 10:51:00,16.7,12.7,29.85,West,264,1.0,1.0,84,0.00,,,0.00,Wunderground v.1.15,2013-12-17 16:51:00,
2013-12-17 11:02:00,17.7,13.7,29.85,NNW,334,1.0,2.0,84,0.00,,,0.00,Wunderground v.1.15,2013-12-17 17:02:00,
2013-12-17 11:12:00,18.9,14.9,29.85,West,266,3.0,6.0,84,0.00,,,0.00,Wunderground v.1.15,2013-12-17 17:12:00,
2013-12-17 11:22:00,19.3,15.0,29.85,NW,325,3.0,5.0,83,0.00,,,0.00,Wunderground v.1.15,2013-12-17 17:22:00,
2013-12-17 11:32:00,19.6,15.3,29.85,West,278,3.0,3.0,83,0.00,,,0.00,Wunderground v.1.15,2013-12-17 17:32:00,
2013-12-17 11:42:00,20.1,15.8,29.85,NW,314,2.0,4.0,83,0.00,,,0.00,Wunderground v.1.15,2013-12-17 17:42:00,
2013-12-17 11:52:00,20.5,15.9,29.84,WNW,299,4.0,5.0,82,0.00,,,0.00,Wunderground v.1.15,2013-12-17 17:52:00,
2013-12-17 12:01:00,20.8,16.5,29.84,West,266,4.0,4.0,83,0.00,,,0.00,Wunderground v.1.15,2013-12-17 18:01:00,
2013-12-17 12:12:00,21.2,16.8,29.84,WSW,255,4.0,4.0,83,0.00,,,0.00,Wunderground v.1.15,2013-12-17 18:12:00,
2013-12-17 12:22:00,21.7,17.3,29.84,NW,309,3.0,3.0,83,0.00,,,0.00,Wunderground v.1.15,2013-12-17 18:22:00,
2013-12-17 12:31:00,22.1,17.4,29.83,WNW,284,2.0,2.0,82,0.00,,,0.00,Wunderground v.1.15,2013-12-17 18:31:00,
2013-12-17 12:41:00,22.5,17.8,29.84,West,272,3.0,4.0,82,0.00,,,0.00,Wunderground v.1.15,2013-12-17 18:41:00,
2013-12-17 12:51:00,22.8,18.1,29.84,WNW,285,2.0,2.0,82,0.00,,,0.00,Wunderground v.1.15,2013-12-17 18:51:00,
2013-12-17 13:02:00,23.2,18.2,29.84,WSW,257,1.0,1.0,81,0.00,,,0.00,Wunderground v.1.15,2013-12-17 19:02:00,
2013-12-17 13:12:00,23.5,18.8,29.84,WSW,243,2.0,5.0,82,0.00,,,0.00,Wunderground v.1.15,2013-12-17 19:12:00,
2013-12-17 13:22:00,23.8,19.1,29.84,WSW,241,2.0,2.0,82,0.00,,,0.00,Wunderground v.1.15,2013-12-17 19:22:00,
2013-12-17 13:32:00,24.3,19.3,29.84,NNW,333,2.0,8.0,81,0.00,,,0.00,Wunderground v.1.15,2013-12-17 19:32:00,
2013-12-17 13:42:00,24.5,19.2,29.84,NW,315,3.0,3.0,80,0.00,,,0.00,Wunderground v.1.15,2013-12-17 19:42:00,
2013-12-17 13:52:00,24.8,19.5,29.84,South,189,2.0,2.0,80,0.00,,,0.00,Wunderground v.1.15,2013-12-17 19:52:00,
2013-12-17 14:02:00,25.4,19.8,29.84,WSW,240,3.0,4.0,79,0.00,,,0.00,Wunderground v.1.15,2013-12-17 20:02:00,
2013-12-17 14:12:00,25.7,19.8,29.83,WNW,284,2.0,4.0,78,0.00,,,0.00,Wunderground v.1.15,2013-12-17 20:12:00,
2013-12-17 14:22:00,25.6,19.7,29.83,WNW,296,3.0,5.0,78,0.00,,,0.00,Wunderground v.1.15,2013-12-17 20:22:00,
2013-12-17 14:31:00,25.4,19.5,29.83,NW,324,3.0,3.0,78,0.00,,,0.00,Wunderground v.1.15,2013-12-17 20:31:00,
2013-12-17 14:41:00,25.4,19.5,29.83,SW,230,3.0,3.0,78,0.00,,,0.00,Wunderground v.1.15,2013-12-17 20:41:00,
2013-12-17 14:51:00,25.5,19.6,29.84,West,266,4.0,4.0,78,0.00,,,0.00,Wunderground v.1.15,2013-12-17 20:51:00,
2013-12-17 15:02:00,25.7,19.8,29.84,WNW,285,3.0,3.0,78,0.00,,,0.00,Wunderground v.1.15,2013-12-17 21:02:00,
2013-12-17 15:12:00,26.2,20.3,29.85,West,270,4.0,8.0,78,0.00,,,0.00,Wunderground v.1.15,2013-12-17 21:12:00,
2013-12-17 15:22:00,26.1,20.2,29.85,WNW,303,4.0,4.0,78,0.00,,,0.00,Wunderground v.1.15,2013-12-17 21:22:00,
2013-12-17 15:32:00,25.4,19.5,29.86,West,272,3.0,3.0,78,0.00,,,0.00,Wunderground v.1.15,2013-12-17 21:32:00,
2013-12-17 15:42:00,25.1,19.2,29.86,NW,317,3.0,3.0,78,0.00,,,0.00,Wunderground v.1.15,2013-12-17 21:42:00,
2013-12-17 15:52:00,24.4,18.8,29.86,WSW,240,1.0,1.0,79,0.00,,,0.00,Wunderground v.1.15,2013-12-17 21:52:00,
2013-12-17 16:02:00,23.6,18.6,29.86,SW,228,1.0,1.0,81,0.00,,,0.00,Wunderground v.1.15,2013-12-17 22:02:00,
2013-12-17 16:12:00,23.0,18.3,29.87,West,270,2.0,2.0,82,0.00,,,0.00,Wunderground v.1.15,2013-12-17 22:12:00,
2013-12-17 16:22:00,22.6,18.5,29.87,West,275,2.0,2.0,84,0.00,,,0.00,Wunderground v.1.15,2013-12-17 22:22:00,
2013-12-17 16:31:00,22.2,18.4,29.87,WNW,293,1.0,1.0,85,0.00,,,0.00,Wunderground v.1.15,2013-12-17 22:31:00,
2013-12-17 16:41:00,21.5,18.2,29.87,WNW,302,0.0,0.0,87,0.00,,,0.00,Wunderground v.1.15,2013-12-17 22:41:00,
2013-12-17 16:51:00,20.9,17.6,29.88,WNW,293,0.0,0.0,87,0.00,,,0.00,Wunderground v.1.15,2013-12-17 22:51:00,
2013-12-17 17:02:00,20.9,17.9,29.88,WNW,293,0.0,0.0,88,0.00,,,0.00,Wunderground v.1.15,2013-12-17 23:02:00,
2013-12-17 17:12:00,21.0,18.0,29.89,West,265,0.0,0.0,88,0.00,,,0.00,Wunderground v.1.15,2013-12-17 23:12:00,
2013-12-17 17:22:00,21.3,18.3,29.89,West,269,0.0,0.0,88,0.00,,,0.00,Wunderground v.1.15,2013-12-17 23:22:00,
2013-12-17 17:32:00,21.7,18.7,29.89,NW,314,0.0,0.0,88,0.00,,,0.00,Wunderground v.1.15,2013-12-17 23:32:00,
2013-12-17 17:42:00,22.1,18.8,29.89,WNW,289,1.0,1.0,87,0.00,,,0.00,Wunderground v.1.15,2013-12-17 23:42:00,
2013-12-17 17:52:00,22.5,18.9,29.90,WNW,286,1.0,1.0,86,0.00,,,0.00,Wunderground v.1.15,2013-12-17 23:52:00,
2013-12-17 18:01:00,22.8,18.7,29.90,NNW,331,1.0,4.0,84,0.00,,,0.00,Wunderground v.1.15,2013-12-18 00:01:00,
2013-12-17 18:12:00,23.0,18.0,29.90,North,354,3.0,3.0,81,0.00,,,0.00,Wunderground v.1.15,2013-12-18 00:12:00,
2013-12-17 18:22:00,23.1,17.6,29.91,NW,313,2.0,2.0,79,0.00,,,0.00,Wunderground v.1.15,2013-12-18 00:22:00,
2013-12-17 18:31:00,23.2,17.4,29.92,WSW,239,3.0,4.0,78,0.00,,,0.00,Wunderground v.1.15,2013-12-18 00:31:00,
2013-12-17 18:41:00,23.3,17.2,29.92,North,10,7.0,7.0,77,0.00,,,0.00,Wunderground v.1.15,2013-12-18 00:41:00,
2013-12-17 18:51:00,23.1,17.0,29.93,NW,305,6.0,13.0,77,0.00,,,0.00,Wunderground v.1.15,2013-12-18 00:51:00,
2013-12-17 19:02:00,22.6,15.9,29.94,NNW,336,6.0,9.0,75,0.00,,,0.00,Wunderground v.1.15,2013-12-18 01:02:00,
2013-12-17 19:12:00,22.1,15.1,29.94,NW,316,7.0,7.0,74,0.00,,,0.00,Wunderground v.1.15,2013-12-18 01:12:00,
2013-12-17 19:21:00,21.5,14.5,29.95,North,360,6.0,7.0,74,0.00,,,0.00,Wunderground v.1.15,2013-12-18 01:21:00,
2013-12-17 19:32:00,21.2,14.2,29.95,NW,319,5.0,5.0,74,0.00,,,0.00,Wunderground v.1.15,2013-12-18 01:32:00,
2013-12-17 19:42:00,20.9,13.6,29.95,North,355,6.0,10.0,73,0.00,,,0.00,Wunderground v.1.15,2013-12-18 01:42:00,
2013-12-17 19:52:00,20.6,13.0,29.96,WNW,283,5.0,5.0,72,0.00,,,0.00,Wunderground v.1.15,2013-12-18 01:52:00,
2013-12-17 20:01:00,20.4,12.8,29.96,NW,319,5.0,5.0,72,0.00,,,0.00,Wunderground v.1.15,2013-12-18 02:01:00,
2013-12-17 20:12:00,20.2,12.9,29.96,NW,318,4.0,8.0,73,0.00,,,0.00,Wunderground v.1.15,2013-12-18 02:12:00,
2013-12-17 20:22:00,20.0,12.7,29.96,NW,309,5.0,5.0,73,0.00,,,0.00,Wunderground v.1.15,2013-12-18 02:22:00,
2013-12-17 20:31:00,19.9,12.9,29.96,NNE,24,4.0,4.0,74,0.00,,,0.00,Wunderground v.1.15,2013-12-18 02:31:00,
2013-12-17 20:41:00,19.8,12.8,29.96,NW,319,4.0,4.0,74,0.00,,,0.00,Wunderground v.1.15,2013-12-18 02:41:00,
2013-12-17 20:51:00,19.6,12.7,29.96,NNE,23,4.0,4.0,74,0.00,,,0.00,Wunderground v.1.15,2013-12-18 02:51:00,
2013-12-17 21:01:00,19.5,12.6,29.96,North,351,3.0,3.0,74,0.00,,,0.00,Wunderground v.1.15,2013-12-18 03:01:00,
2013-12-17 21:12:00,19.4,12.5,29.96,WNW,293,3.0,4.0,74,0.00,,,0.00,Wunderground v.1.15,2013-12-18 03:12:00,
2013-12-17 21:21:00,19.3,12.1,29.96,NNW,342,4.0,7.0,73,0.00,,,0.00,Wunderground v.1.15,2013-12-18 03:21:00,
2013-12-17 21:32:00,19.2,12.3,29.97,WSW,249,4.0,7.0,74,0.00,,,0.00,Wunderground v.1.15,2013-12-18 03:32:00,
2013-12-17 21:42:00,19.0,12.4,29.97,WNW,292,4.0,4.0,75,0.00,,,0.00,Wunderground v.1.15,2013-12-18 03:42:00,
2013-12-17 21:52:00,18.9,12.3,29.98,WNW,301,2.0,2.0,75,0.00,,,0.00,Wunderground v.1.15,2013-12-18 03:52:00,
2013-12-17 22:02:00,18.8,12.8,29.98,NNW,330,2.0,3.0,77,0.00,,,0.00,Wunderground v.1.15,2013-12-18 04:02:00,
2013-12-17 22:12:00,18.6,13.5,29.98,NW,316,3.0,4.0,80,0.00,,,0.00,Wunderground v.1.15,2013-12-18 04:12:00,
2013-12-17 22:22:00,18.3,13.4,29.99,West,276,3.0,7.0,81,0.00,,,0.00,Wunderground v.1.15,2013-12-18 04:22:00,
2013-12-17 22:32:00,18.0,13.4,29.99,NNW,347,4.0,4.0,82,0.00,,,0.00,Wunderground v.1.15,2013-12-18 04:32:00,
2013-12-17 22:41:00,17.8,13.0,30.00,North,352,3.0,3.0,81,0.00,,,0.00,Wunderground v.1.15,2013-12-18 04:41:00,
2013-12-17 22:52:00,17.7,12.3,29.99,NNW,345,3.0,3.0,79,0.00,,,0.00,Wunderground v.1.15,2013-12-18 04:52:00,
2013-12-17 23:01:00,17.7,11.7,30.00,NNW,332,3.0,3.0,77,0.00,,,0.00,Wunderground v.1.15,2013-12-18 05:01:00,
2013-12-17 23:12:00,17.7,11.1,30.00,WNW,288,3.0,4.0,75,0.00,,,0.00,Wunderground v.1.15,2013-12-18 05:12:00,
2013-12-17 23:21:00,17.7,11.1,30.00,NW,319,4.0,4.0,75,0.00,,,0.00,Wunderground v.1.15,2013-12-18 05:21:00,
2013-12-17 23:32:00,17.6,11.0,30.00,WNW,293,2.0,2.0,75,0.00,,,0.00,Wunderground v.1.15,2013-12-18 05:32:00,
2013-12-17 23:42:00,17.5,10.6,30.00,West,267,1.0,3.0,74,0.00,,,0.00,Wunderground v.1.15,2013-12-18 05:42:00,
2013-12-17 23:52:00,17.3,10.7,30.00,West,262,2.0,4.0,75,0.00,,,0.00,Wunderground v.1.15,2013-12-18 05:52:00,